Tracking 18840 objects as of 18-November-2017
HD Live streaming from Space Station
objects crossing your sky now

FENGYUN 1C DEB

Track FENGYUN 1C DEB now!
10-day predictions


NORAD ID: 31190
Int'l Code: 1999-025BJU
Perigee: 851.1 km
Apogee: 960.9 km
Inclination: 99.1 °
Period: 103.0 minutes
Semi major axis: 7276 km
RCS: 0.0055 m2 (small)
Launch date: May 10, 1999
Source: People's Republic of China (PRC)
Launch site: Taiyaun Space Center, China (TSC)

Note: This is SATELLITE DEBRIS
aabbcc
Your satellite tracking list
Your tracking list is empty




NASA's NSSDC Master Catalog

Two Line Element Set (TLE):
1 31190U 99025BJU 17321.85810066  .00000257  00000-0  20480-3 0  9998
2 31190  99.1099 352.9605 0075413 136.4194 224.2960 13.98541108543637
Source of the keplerian elements: AFSPC